This is the latest recevied weather packets stored in our database for station/object KB9HUO. If no packets are shown the sender has not sent any weather packets the latest 10 day(s).
| Time | Temp. | Humidity | Pressure | Rain* | Wind** | Luminosity | Snow |
|---|---|---|---|---|---|---|---|
| 1788640950 | 33.89° C | 58% | 1012.5 hPa | 0 mm | - | 60 W/m² | - |
| 1788640649 | 33.89° C | 56% | 1012.8 hPa | 0 mm | - | 74 W/m² | - |
| 1788640345 | 33.89° C | 56% | 1012.9 hPa | 0 mm | - | 53 W/m² | - |
| 1788640040 | 34.44° C | 57% | 1012.9 hPa | 0 mm | - | 74 W/m² | - |
| 1788639736 | 34.44° C | 58% | 1012.9 hPa | 0 mm | - | 179 W/m² | - |
| 1788639431 | 33.89° C | 56% | 1013 hPa | 0 mm | - | 182 W/m² | - |
| 1788639130 | 33.89° C | 59% | 1013 hPa | 0 mm | - | 92 W/m² | - |
| 1788638826 | 33.89° C | 57% | 1013 hPa | 0 mm | - | 61 W/m² | - |
| 1788638521 | 33.89° C | 56% | 1013.2 hPa | 0 mm | - | 56 W/m² | - |
| 1788638219 | 33.89° C | 58% | 1013 hPa | 0 mm | - | 52 W/m² | - |
| 1788637914 | 33.89° C | 56% | 1013.2 hPa | 0 mm | - | 53 W/m² | - |
| 1788637605 | 33.89° C | 57% | 1013.2 hPa | 0 mm | - | 59 W/m² | - |
| 1788637303 | 34.44° C | 56% | 1013.4 hPa | 0 mm | - | 63 W/m² | - |
| 1788636998 | 34.44° C | 55% | 1013.5 hPa | 0 mm | - | 146 W/m² | - |
| 1788636693 | 35° C | 56% | 1013.4 hPa | 0 mm | - | 125 W/m² | - |
| 1788636388 | 34.44° C | 57% | 1013.6 hPa | 0 mm | - | 320 W/m² | - |
| 1788636085 | 34.44° C | 58% | 1013.5 hPa | 0 mm | - | 87 W/m² | - |
| 1788635784 | 35° C | 57% | 1013.4 hPa | 0 mm | - | 65 W/m² | - |
| 1788635482 | 35° C | 58% | 1013.5 hPa | 0 mm | - | 91 W/m² | - |
| 1788635180 | 34.44° C | 60% | 1013.8 hPa | 0 mm | - | 62 W/m² | - |
| 1788634875 | 35° C | 56% | 1013.8 hPa | 0 mm | - | 86 W/m² | - |
| 1788634574 | 35° C | 56% | 1014.1 hPa | 0 mm | - | 160 W/m² | - |
| 1788634274 | 35° C | 57% | 1014.2 hPa | 0 mm | - | 626 W/m² | - |
| 1788633969 | 35° C | 57% | 1014.2 hPa | 0 mm | - | 634 W/m² | - |
| 1788633668 | 34.44° C | 57% | 1014 hPa | 0 mm | - | 640 W/m² | - |
* Rain latest hour (hover to see other rain measurements)
** Current wind speed in m/s (hover to see current wind gust speed)